Weather in Adil'-Khalk

Russia / Karachay-Cherkess Republic     44°21′22″N   41°55′28″E
temp.,
°C
wind,
m/s
gust,
m/s
humid.,
%
clouds,
%
prec.,
mm/h
press.,
hPa
HPBL,
m
16 june, wed
wed1600:00+16sw11930 0.0 101111
03:00+15ssw22930 0.0 101116
06:00+16ssw12911 0.0 101065
09:00+21ene358393 0.0 1009845
12:00+23ene478087 0.4 10091028
15:00+24ene787219 0.7 10081220
18:00+22e6118110 0.0 1007791
21:00+18e37910 0.0 1006150
17 june, thu
thu1700:00+17se12930 0.0 100527
03:00+16sse11940 0.0 100412
06:00+18sw239299 0.0 1007127
09:00+18w8139389 0.1 1009764
12:00+20nw7108795 0.8 1012923
15:00+20nnw578594 7.1 1013747
18:00+19nnw468822 3.4 1015647
21:00+15wnw11942 4.8 101711
18 june, fri
fri1800:00+13ese11937 0.7 101811
03:00+13sse11920 0.8 101810
06:00+15ese128818 0.0 101967
09:00+19ene45680 0.0 1018742
12:00+21ene45630 0.0 10181213
15:00+22ene556573 0.0 10171362
18:00+20ene377859 0.0 1017436
21:00+17ese24851 0.0 101883
19 june, sat
sat1900:00+15se22910 0.0 101713
03:00+14ese22920 0.0 101624
06:00+15e27900 0.0 1016235
09:00+21e812760 0.0 1014911
12:00+24e9137334 0.0 10131187
15:00+25e1015756 0.0 10111331
18:00+23e817774 0.0 10111153
21:00+20e917710 0.0 1012565
20 june, sun
sun2000:00+19ese6137175 0.0 1012384
03:00+15ese359125 0.0 1012123
06:00+16ese249112 0.0 1013144
09:00+21e22770 0.0 1012449
12:00+25ene33700 0.0 1012793
15:00+26e557011 0.0 1011958
18:00+25e36780 0.0 1011404
21:00+20e39910 0.0 1011177